This is the latest recevied weather packets stored in our database for station/object N2PPN. If no packets are shown the sender has not sent any weather packets the latest 10 day(s).
| Time | Temp. | Humidity | Pressure | Rain* | Wind** | Luminosity | Snow |
|---|---|---|---|---|---|---|---|
| 1777718106 | 10° C | 91% | 1014.9 hPa | 0 mm | - | 4 W/m² | - |
| 1777717804 | 10° C | 91% | 1014.8 hPa | 0 mm | - | 5 W/m² | - |
| 1777717500 | 10° C | 90% | 1015 hPa | 0 mm | - | 5 W/m² | - |
| 1777717196 | 10° C | 90% | 1014.7 hPa | 0 mm | - | 9 W/m² | - |
| 1777716895 | 10° C | 90% | 1014.9 hPa | 0 mm | - | 11 W/m² | - |
| 1777716593 | 10° C | 89% | 1014.8 hPa | 0 mm | - | 7 W/m² | - |
| 1777716292 | 10° C | 89% | 1015 hPa | 0 mm | - | 5 W/m² | - |
| 1777715989 | 10° C | 89% | 1015.1 hPa | 0 mm | - | 2 W/m² | - |
| 1777715686 | 10.56° C | 88% | 1014.6 hPa | 0 mm | - | 2 W/m² | - |
| 1777715384 | 10.56° C | 88% | 1014.6 hPa | 0 mm | - | 1 W/m² | - |
| 1777715081 | 10.56° C | 87% | 1014.6 hPa | 0 mm | - | 0 W/m² | - |
| 1777714779 | 10.56° C | 87% | 1014.8 hPa | 0 mm | - | 0 W/m² | - |
| 1777714478 | 10.56° C | 87% | 1014.5 hPa | 0 mm | - | 0 W/m² | - |
| 1777714175 | 10.56° C | 87% | 1014.4 hPa | 0 mm | - | 0 W/m² | - |
| 1777713873 | 10.56° C | 87% | 1014.4 hPa | 0 mm | - | 0 W/m² | - |
| 1777713570 | 10.56° C | 87% | 1014.6 hPa | 0 mm | - | 0 W/m² | - |
| 1777713266 | 10.56° C | 87% | 1014.4 hPa | 0 mm | - | 0 W/m² | - |
| 1777712963 | 10.56° C | 87% | 1014.5 hPa | 0 mm | - | 0 W/m² | - |
| 1777712660 | 10.56° C | 86% | 1014.7 hPa | 0 mm | - | 0 W/m² | - |
| 1777712357 | 10.56° C | 86% | 1014.7 hPa | 0 mm | - | 0 W/m² | - |
| 1777712053 | 10.56° C | 85% | 1014.6 hPa | 0 mm | - | 0 W/m² | - |
| 1777711750 | 10.56° C | 85% | 1014.4 hPa | 0 mm | - | 0 W/m² | - |
| 1777711447 | 10.56° C | 85% | 1014.7 hPa | 0 mm | - | 0 W/m² | - |
| 1777711142 | 10.56° C | 84% | 1014.6 hPa | 0 mm | - | 0 W/m² | - |
| 1777710839 | 10.56° C | 84% | 1014.6 hPa | 0 mm | - | 0 W/m² | - |
* Rain latest hour (hover to see other rain measurements)
** Current wind speed in m/s (hover to see current wind gust speed)